| time (UTC) | temp F | wind direction | speed knots | gust knots | rain 1hr in | rain 24hr in | rain mn in | humidity % | barometer mb |
| 20260507020003 | 54 | 97 | 1.7 | 2.6 | 0.00 | 0.00 | 0.00 | 86 | 1007.4 |
| 20260507013003 | 54 | 162 | 1.7 | 3.5 | 0.00 | 0.00 | 0.00 | 86 | 1007.1 |
| 20260507010003 | 54 | 191 | 0.9 | 3.5 | 0.00 | 0.00 | 0.00 | 85 | 1006.9 |
| 20260507003003 | 54 | 81 | 3.5 | 7.0 | 0.00 | 0.00 | 0.00 | 85 | 1006.4 |
| 20260507000024 | 54 | 93 | 6.1 | 10.4 | 0.00 | 0.00 | 0.00 | 88 | 1005.8 |
| 20260506233003 | 53 | 7 | 2.6 | 7.0 | 0.00 | 0.00 | 0.00 | 86 | 1006.3 |
| 20260506230003 | 53 | 275 | 3.5 | 11.3 | 0.00 | 0.00 | 0.00 | 86 | 1006.4 |
| 20260506223003 | 56 | 231 | 3.5 | 7.8 | 0.00 | 0.00 | 0.00 | 79 | 1006.2 |
| 20260506220004 | 58 | 114 | 2.6 | 7.0 | 0.00 | 0.00 | 0.00 | 75 | 1005.2 |
| 20260506213003 | 57 | 89 | 1.7 | 3.5 | 0.00 | 0.00 | 0.00 | 76 | 1004.9 |
| 20260506210024 | 57 | 89 | 5.2 | 8.7 | 0.00 | 0.00 | 0.00 | 77 | 1004.7 |
| 20260506203003 | 57 | 102 | 4.3 | 7.8 | 0.00 | 0.00 | 0.00 | 77 | 1004.8 |
| 20260506200003 | 57 | 94 | 7.0 | 11.3 | 0.00 | 0.00 | 0.00 | 77 | 1004.8 |
| 20260506195003 | 57 | 91 | 7.0 | 11.3 | 0.00 | 0.00 | 0.00 | 75 | 1004.9 |
| 20260506193003 | 58 | 65 | 3.5 | 7.0 | 0.00 | 0.00 | 0.00 | 74 | 1005.0 |
| 20260506190004 | 58 | 320 | 4.3 | 12.2 | 0.00 | 0.00 | 0.00 | 77 | 1005.0 |
| 20260506183003 | 59 | 349 | 5.2 | 15.6 | 0.00 | 0.00 | 0.00 | 77 | 1004.8 |
| 20260506180004 | 62 | 70 | 2.6 | 5.2 | 0.00 | 0.00 | 0.00 | 67 | 1004.1 |
| 20260506173003 | 63 | 92 | 5.2 | 7.8 | 0.00 | 0.00 | 0.00 | 66 | 1004.1 |
| 20260506170024 | 62 | 6 | 3.5 | 7.8 | 0.00 | 0.00 | 0.00 | 67 | 1004.2 |
| 20260506163003 | 67 | 183 | 7.8 | 15.6 | 0.00 | 0.00 | 0.00 | 57 | 1004.5 |
| 20260506160003 | 68 | 156 | 10.4 | 23.5 | 0.00 | 0.00 | 0.00 | 51 | 1004.4 |
| 20260506153003 | 68 | 148 | 8.7 | 13.9 | 0.00 | 0.00 | 0.00 | 52 | 1004.7 |
| 20260506150004 | 68 | 157 | 7.0 | 12.2 | 0.00 | 0.00 | 0.00 | 50 | 1004.9 |
| 20260506143004 | 69 | 146 | 4.3 | 7.0 | 0.00 | 0.00 | 0.00 | 50 | 1005.5 |
| 20260506140003 | 70 | 153 | 3.5 | 8.7 | 0.00 | 0.00 | 0.00 | 52 | 1005.6 |
| 20260506133004 | 69 | 148 | 7.8 | 12.2 | 0.00 | 0.00 | 0.00 | 49 | 1006.1 |
| 20260506130004 | 71 | 165 | 3.5 | 7.8 | 0.00 | 0.00 | 0.00 | 48 | 1006.1 |
| 20260506123003 | 71 | 191 | 2.6 | 5.2 | 0.00 | 0.00 | 0.00 | 46 | 1006.6 |
| 20260506120004 | 70 | 182 | 2.6 | 5.2 | 0.00 | 0.00 | 0.00 | 49 | 1007.0 |
| 20260506113003 | 70 | 222 | 4.3 | 9.6 | 0.00 | 0.00 | 0.00 | 48 | 1007.0 |
| 20260506110003 | 69 | 231 | 2.6 | 6.1 | 0.00 | 0.00 | 0.00 | 53 | 1007.1 |
| 20260506103003 | 68 | 256 | 5.2 | 13.9 | 0.00 | 0.00 | 0.00 | 53 | 1007.8 |
| 20260506100003 | 67 | 216 | 6.1 | 11.3 | 0.00 | 0.00 | 0.00 | 55 | 1007.6 |
| 20260506093024 | 66 | 224 | 4.3 | 12.2 | 0.00 | 0.00 | 0.00 | 60 | 1007.6 |
| 20260506090003 | 64 | 223 | 5.2 | 11.3 | 0.00 | 0.00 | 0.00 | 63 | 1007.5 |
| 20260506083003 | 63 | 241 | 5.2 | 11.3 | 0.00 | 0.00 | 0.00 | 66 | 1007.6 |
| 20260506073024 | 59 | 272 | 6.1 | 10.4 | 0.00 | 0.00 | 0.00 | 71 | 1007.5 |
| 20260506043004 | 53 | 171 | 1.7 | 3.5 | 0.00 | 0.00 | 0.00 | 86 | 1006.5 |
| 20260506040003 | 53 | 144 | 1.7 | 3.5 | 0.00 | 0.00 | 0.00 | 84 | 1006.2 |
| 20260506033004 | 53 | 193 | 2.6 | 5.2 | 0.00 | 0.00 | 0.00 | 86 | 1006.2 |
| 20260506030024 | 54 | 189 | 3.5 | 5.2 | 0.00 | 0.00 | 0.00 | 81 | 1006.2 |
| 20260506023003 | 54 | 187 | 2.6 | 3.5 | 0.00 | 0.00 | 0.00 | 79 | 1005.8 |